Location: Axbach
(46.9461°N, 15.7661°E)
Time: 19:14:20
(UTC+00:00)

Daily predictions for brighter satellites

Satellite Brightness Start Highest point End
(mag) Time Altitude Azimuth Time Altitude Azimuth Time Altitude Azimuth
Cosmos 1503 Rocket 4.3 17:14:12 10° NNW 17:19:24 76° WSW 17:24:32 10° SSE
Meteor 1-14 Rocket 4.2 17:18:41 10° S 17:24:12 74° E 17:29:44 10° NNE
Okean O Rocket 3.8 17:20:40 10° SSW 17:24:32 31° W 17:28:26 10° NNW
Cosmos 1500 3.1 17:22:29 10° S 17:26:11 77° E 17:29:57 10° NNE
Cosmos 2360 Rocket 2.3 17:20:41 10° SSW 17:26:21 88° WNW 17:32:04 10° NNE
SJ-11-01 4.3 17:22:37 10° SSE 17:27:15 64° ENE 17:31:56 10° N
USA 186 3.5 17:28:39 10° ENE 17:28:47 10° ENE 17:28:54 10° ENE
Cosmos 2341 Rocket 4.1 17:24:04 10° SSE 17:30:09 55° E 17:36:14 10° NNE
Okean 1-7 3.1 17:26:06 10° N 17:30:23 54° ENE 17:34:37 10° SSE
PSLV R/B 4.0 17:28:12 10° NNE 17:32:12 53° E 17:36:09 10° S
Cosmos 1844 3.9 17:26:55 10° NNW 17:32:42 84° WSW 17:38:24 10° SSE
YAOGAN 1 2.5 17:28:24 10° SSE 17:32:42 76° ENE 17:37:03 10° N
Cosmos 2333 4.3 17:27:20 10° S 17:32:52 60° ESE 17:38:30 10° NNE
Cosmos 2237 Rocket 3.7 17:31:20 10° SE 17:34:11 14° E 17:37:03 10° ENE
Cosmos 2278 Rocket 3.1 17:30:21 10° N 17:35:17 29° NE 17:40:11 10° ESE
SJ 16-02 2.4 17:34:47 10° N 17:38:31 26° ENE 17:42:14 10° ESE
SAR-Lupe-4 3.9 17:35:11 10° NNE 17:38:38 42° E 17:42:02 10° S
FALCON 9 DEB 3.4 17:35:50 10° NW 17:38:56 46° NNE 17:41:32 13° E
Meteor 1-5 Rocket 4.1 17:35:05 10° S 17:40:26 67° E 17:46:00 10° NNE
Cosmos 2218 Rocket 4.4 17:35:01 10° SSE 17:41:00 44° E 17:46:59 10° NNE
COSMO-SKYMED 1 3.7 17:39:22 10° N 17:43:33 48° WNW 17:47:43 10° SW
Okean 3 4.0 17:39:54 10° N 17:43:54 38° ENE 17:47:54 10° SE
SL-4 R/B 1.8 17:40:31 10° WNW 17:44:03 66° SSW 17:47:21 11° SE
Cosmos 1536 3.6 17:40:50 10° SSE 17:44:15 28° E 17:47:42 10° NNE
SeaSat 1 3.2 17:41:47 10° NE 17:46:07 30° ESE 17:50:26 10° S
FALCON 9 DEB 3.1 17:43:46 10° NW 17:46:54 56° NNE 17:49:12 17° E
Cosmos 2242 Rocket 3.7 17:43:20 10° N 17:47:50 84° W 17:52:16 10° S
USA 234 4.4 17:45:46 10° ENE 17:50:36 22° SE 17:55:28 10° S
Gbstr 26 Del rocket 3.7 17:47:03 10° WNW 17:51:27 53° NNE 17:55:46 15° E
Cosmos 2333 Rocket 2.2 17:48:05 10° SSW 17:53:44 69° ESE 17:59:27 10° NNE
USA 238 DEB 4.3 17:48:35 10° S 17:54:14 32° ESE 18:00:08 10° NE
USA 238 4.3 17:48:43 10° S 17:54:22 32° ESE 18:00:14 10° NE
Resurs 01 Rocket 3.6 17:54:07 12° ENE 17:54:39 12° ENE 17:56:15 10° NE
Abrixas rocket 1.7 17:52:51 10° WNW 17:55:18 62° SSW 17:56:40 22° SE
Meteor 2-4 Rocket 4.3 17:52:58 10° NNW 17:58:49 65° W 18:04:40 10° S
SAR-Lupe-1 3.9 17:55:28 10° NNE 17:59:04 80° ESE 18:02:40 10° SSW
Helios 1A Rocket 2.8 17:55:23 10° SSE 17:59:25 84° ENE 18:03:28 10° NNW
Cosmos 2322 Rocket 4.0 17:55:14 10° WSW 18:00:15 33° NW 18:05:19 10° NNE
Lacrosse 4 Rocket 1.5 17:56:43 10° SSW 18:01:08 84° ESE 18:05:38 10° NNE
GP-B 3.1 17:57:08 10° S 18:01:34 90° WSW 18:06:02 10° N
DELTA 2 R/B (1) 4.5 17:57:28 10° SW 18:02:25 34° SSE 18:05:50 18° ESE
ARGOS 3.3 17:58:09 10° S 18:03:35 78° WSW 18:09:03 10° NNW
Cosmos 192 4.4 18:02:35 10° SSW 18:07:29 86° WNW 18:12:27 10° NNE
Cosmos 1869 Rocket 3.4 18:03:54 10° S 18:08:16 76° E 18:12:41 10° NNE
CZ-4 R/B 3.0 18:05:34 10° SSW 18:09:09 35° W 18:12:49 10° NNW
CZ-4B R/B 4.2 18:07:43 10° NNW 18:10:01 19° WNW 18:12:20 10° WSW
Cosmos 2219 Rocket 2.1 18:04:38 10° SSW 18:10:13 81° ESE 18:15:53 10° NNE
ERS-2 2.6 18:11:05 10° N 18:14:43 64° WNW 18:18:20 10° SSW
CZ-2C R/B 2.6 18:09:41 10° NNE 18:15:11 83° ESE 18:20:29 10° SSW
FALCON 9 DEB 2.8 18:12:26 10° WNW 18:15:36 88° SW 18:16:47 35° ESE
Cosmos 1689 Rocket 3.2 18:13:32 10° N 18:16:19 44° WNW 18:19:05 10° SSW
Cosmos 1238 Rocket 2.8 18:12:33 10° S 18:16:30 47° E 18:19:50 10° NNE
Cosmos 1980 4.3 18:13:25 10° SSE 18:18:24 33° ESE 18:23:24 10° NE
SL-08 RB Rocket 3.9 18:14:01 10° S 18:18:33 74° WSW 18:23:10 10° NNW
Cosmos 1378 3.0 18:15:24 10° N 18:19:08 71° E 18:22:45 10° SSE
USA 305 3.3 18:16:40 10° NW 18:20:51 50° NNE 18:22:40 29° E
NOSS 3-2 (A) 3.4 18:17:27 10° SSW 18:22:53 55° ESE 18:29:06 10° NE
CREW DRAGON DEMO-1 DEB 2.4 18:20:47 10° WSW 18:23:36 77° SSE 18:23:59 60° E
COSMOS 2428 2.7 18:19:18 10° SSW 18:24:59 87° ESE 18:30:43 10° NNE
FALCON 9 DEB 2.8 18:21:52 10° WNW 18:25:05 88° SSW 18:25:51 48° ESE
Cosmos 1733 Rocket 3.5 18:21:35 10° SSE 18:25:35 38° E 18:29:39 10° NNE
SL-8 Rocket 4.3 18:27:30 10° SSW 18:33:42 68° W 18:39:52 10° N
CENTAUR R/B 2.7 18:29:04 10° S 18:34:34 46° ESE 18:41:05 10° NE
USA 307 3.2 18:30:26 10° NW 18:34:39 55° NNE 18:35:52 40° ENE
Meteor 2-20 4.3 18:28:43 10° N 18:34:51 72° E 18:40:58 10° SSE
Cosmos 2369 Rocket 4.1 18:32:33 10° N 18:35:04 13° NE 18:36:12 12° NE
USA 306 3.1 18:31:41 10° NW 18:35:56 58° NNE 18:37:06 41° E
NOSS 0 Rocket 3.9 18:30:21 10° S 18:36:20 58° ESE 18:42:21 10° NE
ATLAS CENTAUR R/B 3.9 18:34:49 10° WNW 18:37:05 15° NNW 18:39:23 10° N
Cosmos 1066 Rocket 4.4 18:31:48 10° NNW 18:37:35 79° W 18:43:25 10° S
Cosmos 1898 Rocket 3.9 18:32:44 10° NNW 18:37:46 44° ENE 18:39:11 36° E
Cosmos 1743 2.7 18:36:23 10° S 18:40:12 60° E 18:44:03 10° NNE
USA 308 3.0 18:41:14 10° NW 18:45:29 62° NNE 18:46:15 51° ENE
Meteor 1-23 Rocket 4.2 18:42:22 10° NNW 18:48:00 83° W 18:53:41 10° S
BREEZE-M DEB (TANK) 3.4 18:48:23 10° WSW 18:50:06 45° SW 18:50:06 45° SW
ASTEX 1 3.3 18:46:47 10° N 18:51:42 87° W 18:56:36 10° S
SJ-6B 3.0 18:52:44 28° S 18:54:47 71° WSW 18:58:48 10° NNW
Cosmos 1674 Rocket 3.5 18:51:04 10° N 18:55:15 59° ENE 18:55:15 59° ENE
Ariane Rocket 2.9 18:55:34 29° SSE 18:58:15 89° ENE 19:03:24 10° NNW
Cosmos 990 Rocket 3.8 18:53:06 10° NNW 18:58:19 75° ENE 18:59:41 49° SE
USA 186 3.4 18:59:36 26° W 18:59:36 26° W 19:01:34 10° NW
Cosmos 2221 Rocket 3.9 18:54:56 10° NNW 18:59:20 66° W 19:02:10 22° S
OBJECT-B 1.4 19:02:10 54° WNW 19:02:10 54° WNW 19:04:58 10° NNW
Cosmos 1763 Rocket 3.5 18:57:01 10° S 19:02:12 58° ESE 19:07:26 10° NNE
Cosmos 2297 4.4 18:57:07 10° NNW 19:02:24 36° NE 19:02:40 36° ENE
NOSS 3-2 (C) 3.2 18:59:04 10° SSW 19:04:35 64° ESE 19:08:11 26° NE
Cosmos 1378 Rocket 3.7 19:05:24 10° N 19:09:20 63° NNE 19:09:20 63° NNE
Cosmos 468 Rocket 3.8 19:08:36 10° SSW 19:13:54 76° ESE 19:19:11 10° NNE
Cosmos 1943 Rocket 3.2 19:10:46 10° NNW 19:15:25 32° NE 19:15:25 32° NE
Cosmos 1821 Rocket 3.9 19:09:53 10° S 19:16:07 87° W 19:22:18 10° N
SJ 16-02 2.7 19:13:07 10° NW 19:17:10 36° WSW 19:19:19 23° SSW
Cosmos 2237 Rocket 2.1 19:11:40 10° SSW 19:17:22 87° ESE 19:23:07 10° NNE
Cosmos 1544 4.3 19:14:37 10° SSW 19:18:06 41° WNW 19:21:37 10° N
Cosmos 858 Rocket 4.4 19:13:48 10° NNW 19:18:47 66° NE 19:18:47 66° NE
Cosmos 2278 Rocket 2.8 19:14:10 10° NW 19:19:41 54° WSW 19:22:11 31° S
USA 81 4.2 19:16:36 10° SSW 19:21:51 72° W 19:27:08 10° N
SL-4 R/B 4.4 19:21:47 10° WSW 19:22:57 11° SW 19:22:57 11° SW
Meteor 1-21 4.1 19:17:17 10° N 19:23:00 69° ENE 19:23:05 68° E
SeaSat 1 3.5 19:19:03 10° NNE 19:23:46 45° NW 19:28:26 10° SW
SPOT 3 Rocket 3.4 19:24:24 78° ENE 19:24:24 78° ENE 19:29:37 10° NNW
Cosmos 2239 Rocket 4.4 19:19:30 10° S 19:25:49 88° WNW 19:32:07 10° N
Cosmos 1934 Rocket 3.8 19:30:07 70° E 19:30:07 70° E 19:36:04 10° NNE
Resurs 01 Rocket 2.4 19:31:41 47° NNW 19:31:41 47° NNW 19:34:53 10° NNW
SPOT 1/Viking Rocket 4.5 19:33:55 37° NNE 19:33:55 37° NNE 19:37:20 10° N
USA 234 3.1 19:33:09 60° E 19:34:19 75° SE 19:40:52 10° SW
Cosmos 2333 Rocket 4.3 19:33:55 10° W 19:38:33 25° NW 19:43:15 10° N
Gbstr 26 Del rocket 3.7 19:33:41 10° WNW 19:38:19 67° SW 19:38:19 67° SW
Cosmos 1937 Rocket 3.6 19:35:12 10° NNW 19:39:49 69° NW 19:39:49 69° NW
Lacrosse 4 Rocket 4.2 19:37:24 10° W 19:40:25 18° NW 19:43:30 10° N
Cosmos 2123 Rocket 3.8 19:34:18 10° N 19:40:35 90° E 19:41:02 79° S
USA 238 DEB 4.0 19:38:14 10° SW 19:44:46 63° NW 19:51:40 10° NE
USA 238 4.0 19:38:20 10° SW 19:44:52 63° NW 19:51:46 10° NE
Cosmos 2219 Rocket 4.5 19:50:39 10° W 19:54:53 21° NW 19:59:09 10° N
Terra 4.2 20:00:54 14° N 20:00:54 14° N 20:01:45 10° N
Cosmos 2369 Rocket 3.6 20:14:58 10° NNW 20:18:00 31° N 20:18:00 31° N
CENTAUR R/B 3.5 20:19:21 10° WSW 20:25:15 46° NW 20:32:18 10° NE
USA 281 4.4 20:54:08 33° N 20:54:08 33° N 20:57:54 10° NNW
Cosmos 1943 Rocket 4.1 20:54:21 10° NW 20:56:57 26° NW 20:56:57 26° NW
Cosmos 2237 Rocket 4.5 20:58:01 10° W 21:02:14 21° NW 21:06:26 10° N
